Date String (YYYY-MM-DD hh:mm:ss) UTC,Instrument flags,Ambient pressure (hPa),Sample flow (lpm),Bypass flow (lpm),Sample temperature (°C),Ambient temperature (°C),ASC tube jacket temperature (°C),LED temperature (°C),Box temperature (°C),Sample RH (%),Span deviation,Mass concentration (μg/m³),Mass concentration (μg/m³),Mass concentration (μg/m³)
DateTimeUTC,F1_M11,P_M11,Q1_M11,Q2_M11,T1_M11,T2_M11,T3_M11,T4_M11,T5_M11,U1_M11,ZSPAN_M11,X0_M11,X2_M11,X1_M11
2021-11-04 08:00:00,,0830.3,5.01,0.00,26.2,25.2,00.0,35.3,27.9,13.3,0000.0,0005.01,0002.51,0002.37
2021-11-04 08:01:00,,0830.2,5.01,0.00,26.2,25.2,00.0,35.3,27.9,13.4,0000.0,0004.03,0002.48,0002.35
2021-11-04 08:02:00,,0830.2,5.00,0.00,26.2,25.2,00.0,35.3,27.9,13.4,0000.0,0003.90,0002.45,0002.32
2021-11-04 08:03:00,,0830.2,4.99,0.00,26.2,25.2,00.0,35.3,27.9,13.4,0000.0,0003.92,0002.45,0002.31
2021-11-04 08:04:00,,0830.3,5.00,0.00,26.2,25.2,00.0,35.3,27.9,13.4,0000.0,0003.94,0002.46,0002.30
2021-11-04 08:05:00,,0830.2,5.00,0.00,26.1,25.2,00.0,35.3,27.9,13.4,0000.0,0003.33,0002.40,0002.27
2021-11-04 08:06:00,,0830.2,5.00,0.00,26.1,25.2,00.0,35.3,27.9,13.4,0000.0,0002.71,0002.40,0002.26
2021-11-04 08:07:00,,0830.2,5.00,0.00,26.1,25.2,00.0,35.2,27.9,13.6,0000.0,0002.75,0002.41,0002.26
2021-11-04 08:08:00,,0830.1,5.00,0.00,26.1,25.2,00.0,35.2,27.9,13.5,0000.0,0002.78,0002.41,0002.25
2021-11-04 08:09:00,,0830.1,5.00,0.00,26.1,25.2,00.0,35.2,27.9,13.5,0000.0,0002.90,0002.42,0002.26
2021-11-04 08:10:00,,0830.1,4.99,0.00,26.1,25.1,00.0,35.2,27.8,13.6,0000.0,0002.94,0002.43,0002.27
2021-11-04 08:11:00,,0830.1,5.01,0.00,26.1,25.1,00.0,35.2,27.8,13.6,0000.0,0003.02,0002.40,0002.26
2021-11-04 08:12:00,,0830.1,5.01,0.00,26.1,25.1,00.0,35.2,27.8,13.6,0000.0,0003.49,0002.43,0002.28
2021-11-04 08:13:00,,0830.1,4.99,0.00,26.1,25.1,00.0,35.2,27.8,13.6,0000.0,0003.60,0002.48,0002.31
2021-11-04 08:14:00,,0830.1,5.00,0.00,26.1,25.1,00.0,35.2,27.8,13.6,0000.0,0003.63,0002.49,0002.32
2021-11-04 08:15:00,,0830.1,5.00,0.00,26.1,25.1,00.0,35.2,27.8,13.5,0000.0,0003.60,0002.48,0002.32
2021-11-04 08:16:00,,0830.2,5.01,0.00,26.1,25.1,00.0,35.2,27.8,13.5,0000.0,0003.63,0002.50,0002.34
2021-11-04 08:17:00,,0830.1,5.00,0.00,26.1,25.1,00.0,35.2,27.8,13.6,0000.0,0003.67,0002.53,0002.35
2021-11-04 08:18:00,,0830.2,5.00,0.00,26.0,25.1,00.0,35.2,27.8,13.6,0000.0,0003.69,0002.54,0002.36
2021-11-04 08:19:00,,0830.1,4.99,0.00,26.0,25.1,00.0,35.2,27.8,13.6,0000.0,0003.66,0002.54,0002.37
2021-11-04 08:20:00,,0830.1,5.00,0.00,26.0,25.1,00.0,35.1,27.7,13.6,0000.0,0003.52,0002.54,0002.37
2021-11-04 08:21:00,,0830.1,5.00,0.00,26.0,25.1,00.0,35.1,27.8,13.6,0000.0,0003.47,0002.55,0002.35
2021-11-04 08:22:00,,0830.1,5.01,0.00,26.0,25.0,00.0,35.1,27.8,13.7,0000.0,0003.46,0002.57,0002.36
2021-11-04 08:23:00,,0830.1,5.00,0.00,26.0,25.0,00.0,35.1,27.7,13.7,0000.0,0002.89,0002.55,0002.35
2021-11-04 08:24:00,,0830.1,5.00,0.00,26.0,25.0,00.0,35.1,27.8,13.7,0000.0,0002.80,0002.50,0002.33
2021-11-04 08:25:00,,0830.2,5.00,0.00,26.0,25.0,00.0,35.1,27.8,13.6,0000.0,0002.70,0002.47,0002.32
2021-11-04 08:26:00,,0830.1,5.01,0.00,26.0,25.0,00.0,35.1,27.7,13.6,0000.0,0002.66,0002.45,0002.31
2021-11-04 08:27:00,,0830.1,5.00,0.00,26.0,25.0,00.0,35.1,27.7,13.6,0000.0,0002.63,0002.42,0002.29
2021-11-04 08:28:00,,0830.1,5.00,0.00,26.0,25.0,00.0,35.1,27.7,13.6,0000.0,0002.56,0002.39,0002.27
2021-11-04 08:29:00,,0830.1,5.00,0.00,26.0,25.0,00.0,35.1,27.7,13.6,0000.0,0002.58,0002.37,0002.26
2021-11-04 08:30:00,,0830.1,5.01,0.00,26.0,25.0,00.0,35.1,27.7,13.6,0000.0,0002.65,0002.35,0002.23
2021-11-04 08:31:00,,0830.1,5.00,0.00,25.9,25.0,00.0,35.1,27.7,13.7,0000.0,0002.69,0002.34,0002.22
2021-11-04 08:32:00,,0830.1,5.00,0.00,25.9,25.0,00.0,35.1,27.7,13.7,0000.0,0002.68,0002.33,0002.22
2021-11-04 08:33:00,,0830.1,5.01,0.00,25.9,24.9,00.0,35.1,27.7,13.7,0000.0,0002.68,0002.32,0002.23
2021-11-04 08:34:00,,0830.1,5.01,0.00,25.9,24.9,00.0,35.0,27.7,13.7,0000.0,0002.82,0002.37,0002.24
2021-11-04 08:35:00,,0830.0,4.99,0.00,25.9,24.9,00.0,35.0,27.7,13.8,0000.0,0002.93,0002.41,0002.26
2021-11-04 08:36:00,,0830.1,4.99,0.00,25.9,24.9,00.0,35.0,27.6,13.8,0000.0,0003.06,0002.44,0002.27
2021-11-04 08:37:00,,0830.1,5.01,0.00,25.9,24.9,00.0,35.0,27.6,13.9,0000.0,0003.18,0002.48,0002.30
2021-11-04 08:38:00,,0830.1,5.00,0.00,25.9,24.9,00.0,35.0,27.6,13.9,0000.0,0003.18,0002.51,0002.33
2021-11-04 08:39:00,,0830.1,4.98,0.00,25.9,24.9,00.0,35.0,27.6,13.8,0000.0,0003.21,0002.51,0002.33
2021-11-04 08:40:00,,0830.1,5.00,0.00,25.9,24.9,00.0,35.0,27.6,13.8,0000.0,0003.29,0002.54,0002.35
2021-11-04 08:41:00,,0830.1,5.00,0.00,25.9,24.9,00.0,35.0,27.6,13.8,0000.0,0003.78,0002.59,0002.37
2021-11-04 08:42:00,,0830.1,5.00,0.00,25.8,24.9,00.0,35.0,27.6,13.8,0000.0,0003.81,0002.59,0002.40
2021-11-04 08:43:00,,0830.1,5.00,0.00,25.8,24.9,00.0,35.0,27.6,13.9,0000.0,0003.81,0002.60,0002.41
2021-11-04 08:44:00,,0830.1,5.01,0.00,25.8,24.9,00.0,35.0,27.6,13.9,0000.0,0003.81,0002.61,0002.41
2021-11-04 08:45:00,,0830.1,5.00,0.00,25.8,24.9,00.0,35.0,27.6,13.9,0000.0,0003.76,0002.60,0002.41
2021-11-04 08:46:00,,0830.0,5.00,0.00,25.8,24.9,00.0,34.9,27.6,14.0,0000.0,0003.71,0002.59,0002.42
2021-11-04 08:47:00,,0830.0,5.00,0.00,25.8,24.9,00.0,34.9,27.5,14.1,0000.0,0003.62,0002.59,0002.43
2021-11-04 08:48:00,,0830.0,5.00,0.00,25.8,24.8,00.0,34.9,27.6,14.2,0000.0,0003.64,0002.63,0002.44
2021-11-04 08:49:00,,0829.9,5.00,0.00,25.8,24.8,00.0,34.9,27.5,14.3,0000.0,0003.66,0002.64,0002.45
2021-11-04 08:50:00,,0829.9,5.00,0.00,25.8,24.8,00.0,34.9,27.5,14.2,0000.0,0003.65,0002.65,0002.46
2021-11-04 08:51:00,,0829.9,4.99,0.00,25.8,24.8,00.0,34.9,27.5,14.2,0000.0,0003.59,0002.67,0002.48
2021-11-04 08:52:00,,0829.9,5.00,0.00,25.8,24.8,00.0,34.9,27.5,14.2,0000.0,0003.05,0002.68,0002.50
2021-11-04 08:53:00,,0829.8,5.01,0.00,25.8,24.8,00.0,34.9,27.5,14.2,0000.0,0002.99,0002.68,0002.51
2021-11-04 08:54:00,,0829.8,5.00,0.00,25.8,24.8,00.0,34.9,27.5,14.2,0000.0,0003.03,0002.72,0002.53
2021-11-04 08:55:00,,0829.9,4.99,0.00,25.8,24.8,00.0,34.9,27.5,14.3,0000.0,0003.20,0002.77,0002.56
2021-11-04 08:56:00,,0829.8,5.00,0.00,25.7,24.8,00.0,34.9,27.5,14.3,0000.0,0003.24,0002.79,0002.59
2021-11-04 08:57:00,,0829.9,5.00,0.00,25.7,24.8,00.0,34.9,27.5,14.3,0000.0,0003.37,0002.81,0002.61
2021-11-04 08:58:00,,0829.9,5.00,0.00,25.7,24.7,00.0,34.9,27.4,14.3,0000.0,0003.42,0002.84,0002.63
2021-11-04 08:59:00,,0829.9,5.00,0.00,25.7,24.7,00.0,34.8,27.4,14.3,0000.0,0003.54,0002.84,0002.65
